Probability
0 0 1 1 0 0 1 0 0 1 2 3 3 3 3 3 3 2 2 1 0 1 2 3 3 2 1 0 0 0 0 0 0 0 0 0 0 0 0 0 0 0 0
0 1 2 2 1 0 1 0 0 1 2 3 3 3 3 3 3 1 1 0 0 0 1 2 3 3 1 0 0 0 0 0 0 0 0 0 0 0 0 0 0 0 0
0 2 4 4 1 0 0 0 0 1 2 3 2 1 2 3 3 1 0 0 0 0 0 1 2 2 1 0 0 1 1 0 0 0 0 0 0 0 0 0 0 0 0
2 3 5 5 3 1 1 0 0 0 1 2 2 1 1 2 2 1 0 0 0 0 0 0 1 1 1 0 1 2 2 1 0 0 0 0 0 0 0 0 0 0 0
5 4 5 6 5 4 4 3 1 0 1 2 2 1 1 2 1 1 0 0 0 0 0 0 0 0 0 1 2 3 3 1 0 0 0 0 0 0 0 0 0 0 0
5 4 5 7 7 6 7 6 3 0 0 1 2 2 2 2 1 2 1 0 0 0 0 1 1 0 0 1 2 3 3 2 1 0 0 0 0 0 0 0 0 0 0
5 5 5 8 8 7 7 8 4 1 0 0 1 2 3 2 2 2 1 0 0 0 1 2 1 0 0 1 2 3 3 2 1 0 0 0 0 0 0 0 0 0 0
7 6 7 8 8 6 6 7 5 2 0 0 1 2 3 3 2 1 1 0 0 0 1 1 1 0 0 1 2 3 3 2 1 0 0 0 0 0 0 0 0 0 0
8 8 9 9 8 6 4 5 4 1 0 0 1 2 2 2 1 0 0 0 0 0 0 0 0 0 0 1 2 3 3 1 0 0 0 0 0 0 0 0 0 0 0
7 8 9 9 8 6 3 2 1 0 0 0 0 1 1 1 1 0 0 0 1 0 0 0 0 0 0 0 1 3 3 1 0 0 0 0 0 0 0 0 0 0 0
7 8 9 10 8 5 3 2 1 0 0 0 0 0 0 0 1 0 0 0 0 0 0 0 0 0 0 0 1 2 3 2 1 0 0 0 0 0 0 0 0 0 1
6 7 8 9 8 5 3 3 2 1 0 0 0 0 0 0 0 0 0 0 0 0 0 0 0 0 0 0 0 1 3 3 1 0 0 0 0 0 0 0 0 0 1
6 6 7 9 7 5 3 4 4 2 1 0 0 0 0 0 0 0 0 0 0 0 0 0 0 0 0 0 0 1 2 3 2 1 0 0 0 0 0 0 0 0 1
5 5 7 8 7 4 3 3 3 2 1 0 0 0 0 0 0 0 0 0 0 0 0 0 0 0 0 0 0 1 2 3 2 1 0 0 0 0 0 0 0 0 1
5 6 7 8 7 4 3 2 2 1 0 0 0 0 0 0 0 0 0 0 0 0 0 0 0 0 0 0 0 0 1 2 1 0 0 0 0 0 0 0 0 1 2
5 6 7 8 8 6 3 1 1 0 0 0 0 0 0 0 0 0 0 0 0 0 0 0 0 0 0 0 0 0 1 1 1 0 0 0 0 0 0 0 1 1 2
4 5 7 9 10 8 3 0 0 0 0 0 0 0 0 0 0 0 0 0 0 0 0 0 0 0 0 0 0 0 1 1 1 0 0 0 0 0 0 1 1 1 2
2 3 6 9 10 8 4 1 0 0 0 0 0 0 0 0 0 0 0 0 0 0 0 0 0 0 0 0 0 0 1 2 2 1 0 0 0 0 0 0 1 1 2
0 2 5 7 9 8 5 2 0 0 0 0 0 0 0 0 0 0 0 0 0 0 0 0 0 0 0 0 0 0 1 1 1 1 0 0 0 0 0 0 0 1 2
0 0 2 4 6 7 5 3 1 0 0 0 0 0 0 0 0 0 0 0 0 0 0 0 0 0 0 0 0 0 0 0 0 0 0 0 0 0 0 0 0 1 2
0 0 0 1 2 4 4 2 1 0 0 0 0 0 0 0 0 1 2 1 1 0 0 0 0 0 0 0 0 0 0 0 0 0 0 0 0 0 0 0 0 0 1
0 0 0 0 1 2 2 1 0 0 0 0 0 0 0 0 1 2 3 3 2 1 0 0 0 0 0 0 0 0 0 0 0 0 0 0 0 0 0 0 0 0 0
0 0 0 0 0 1 1 1 0 0 0 0 0 0 0 1 2 3 3 3 2 1 0 0 0 0 0 0 0 0 0 0 0 0 0 0 0 0 0 0 0 0 0
0 0 0 0 0 0 0 0 0 0 0 0 0 0 0 1 2 2 3 3 2 1 0 0 0 0 0 0 0 0 0 0 0 0 0 0 0 0 0 0 0 0 0
0 0 0 0 0 0 0 0 0 0 0 0 0 0 0 0 1 1 1 2 2 1 0 0 0 0 0 0 0 0 0 0 0 0 0 0 0 0 0 0 0 0 0
0 0 0 0 0 0 0 0 0 0 0 0 0 0 0 0 0 0 0 1 1 0 0 0 0 0 0 0 0 0 0 0 0 0 0 0 0 0 0 0 0 0 0
Wind_Speed
3 3 5 6 9 10 11 11 11 11 11 11 11 12 12 12 12 12 11 10 10 10 11 12 13 13 13 13 13 13 13 13 13 13 13 13 13 14 13 13 11 8 13
5 5 5 6 9 11 11 11 11 10 11 11 11 11 11 12 12 11 11 10 10 10 11 12 13 13 12 12 12 12 13 13 12 12 11 10 11 13 13 12 11 8 13
7 5 5 7 10 11 11 11 11 10 10 11 11 11 11 11 10 10 10 10 10 10 11 12 12 12 12 12 11 11 12 12 11 10 9 5 6 11 12 12 11 12 12
7 5 5 8 9 11 11 11 10 10 10 11 11 11 10 10 10 10 10 10 10 10 11 11 12 12 11 11 11 11 11 11 10 9 5 4 4 9 11 11 11 11 11
6 4 5 8 10 11 11 11 10 10 10 10 10 10 10 10 10 9 9 9 10 10 11 11 11 11 10 11 11 11 11 11 10 8 4 4 4 9 10 11 11 11 10
5 4 5 9 10 10 10 10 10 10 10 10 10 10 9 9 9 9 9 9 9 10 10 10 10 10 10 10 11 11 11 11 8 5 4 4 3 8 10 10 10 10 10
5 4 5 8 10 10 10 10 10 9 9 9 9 9 8 8 8 8 8 8 9 9 9 10 10 10 10 10 10 10 11 10 6 5 4 3 4 9 9 10 10 10 10
5 4 5 8 9 9 9 9 9 9 8 8 8 8 7 8 8 7 7 8 8 8 8 9 9 9 9 9 9 10 10 8 6 5 4 3 6 8 8 8 9 9 9
5 5 4 4 6 8 9 8 8 8 8 8 8 8 8 7 7 7 7 7 8 8 8 8 9 8 9 9 9 9 9 9 5 3 4 3 5 7 7 7 7 8 8
4 4 4 4 4 4 5 8 8 7 7 7 7 7 7 6 6 6 6 7 7 8 8 8 8 8 8 8 9 8 8 7 4 3 2 3 6 6 6 7 6 7 7
3 3 4 4 4 4 4 5 6 6 6 6 5 7 5 3 3 3 5 6 7 7 7 8 8 8 7 8 8 7 6 3 3 3 2 4 5 6 6 6 6 6 7
4 4 4 4 4 4 3 3 3 3 3 3 3 3 3 2 2 4 5 6 6 6 6 7 7 6 6 4 5 5 3 3 3 2 2 4 4 5 5 5 5 6 6
4 3 3 4 4 4 3 3 2 2 2 2 3 3 3 3 2 3 2 3 3 4 3 4 4 3 3 2 3 2 2 3 2 2 3 4 4 4 4 4 4 5 5
3 3 3 4 4 4 4 3 2 2 2 2 2 3 3 2 2 2 1 1 2 1 2 2 2 2 3 3 3 3 2 2 1 1 2 5 4 3 3 4 4 4 4
3 4 4 4 4 4 4 3 3 3 2 2 2 2 3 2 2 2 2 2 1 1 1 1 1 2 3 2 2 2 2 2 2 2 2 5 5 4 3 3 4 4 4
4 4 4 4 5 5 4 4 3 3 2 2 2 2 3 2 2 2 2 2 1 1 1 1 2 2 2 2 2 2 1 1 1 1 1 2 4 4 4 3 4 4 4
4 4 4 5 4 4 4 4 3 3 3 2 2 2 3 3 3 2 2 2 1 1 1 2 2 2 2 2 2 2 1 1 1 1 1 1 1 3 4 3 3 4 4
2 3 4 3 4 4 4 4 3 2 3 2 2 2 2 3 3 2 2 1 1 2 2 2 2 2 2 1 1 1 1 0 1 1 1 1 1 1 2 4 4 3 3
2 2 3 3 3 3 3 3 3 2 2 2 2 2 2 3 3 3 2 1 1 1 1 2 2 1 2 1 1 0 0 0 0 1 1 1 1 1 1 3 4 4 4
2 3 2 2 2 3 2 2 2 2 1 1 2 2 3 2 3 3 2 1 2 2 1 2 2 1 1 1 1 0 0 0 0 0 0 0 0 0 1 1 1 3 4
3 3 3 3 2 2 2 2 2 2 1 1 1 2 2 2 3 3 3 2 2 2 2 2 2 2 1 1 1 1 1 0 1 1 0 0 0 0 0 0 0 1 2
3 2 2 2 2 2 1 1 2 2 1 1 1 1 2 2 2 3 3 3 2 2 2 2 2 1 1 1 1 1 1 2 1 1 1 1 1 1 1 1 1 1 1
2 3 3 2 2 1 2 2 2 2 2 1 0 0 0 1 2 2 3 3 3 2 2 2 2 3 2 1 1 2 2 2 2 1 1 1 1 1 1 1 2 2 2
2 2 2 2 2 2 2 3 3 2 1 1 1 0 0 1 1 1 2 2 3 2 2 2 2 1 3 2 1 1 1 2 2 1 1 1 1 2 2 2 2 2 2
1 2 2 2 2 2 2 2 2 1 1 1 1 1 0 0 1 1 1 1 2 2 2 2 2 2 2 2 2 1 1 0 1 2 3 2 2 2 2 3 2 2 2
2 2 2 2 2 1 2 2 2 2 1 2 1 1 0 0 0 0 1 1 1 1 2 2 2 2 2 2 2 2 2 2 2 2 3 3 3 3 2 2 3 2 2
Wind_Direction
163 167 152 135 125 118 112 108 104 101 100 96 93 91 89 87 85 85 84 84 87 89 91 88 85 85 85 84 82 80 78 75 74 73 73 75 80 81 80 75 70 67 74
153 155 148 139 127 120 115 110 106 104 103 101 97 94 91 88 87 85 84 85 89 92 92 90 87 85 84 84 82 80 80 76 71 67 65 67 76 81 81 80 75 74 76
139 146 148 136 127 121 116 112 108 106 105 104 100 96 93 90 89 87 87 86 90 94 92 92 89 86 85 82 80 79 79 75 70 63 61 54 69 80 82 79 78 76 76
138 142 143 130 126 124 121 115 111 108 107 107 103 99 95 93 91 89 88 89 90 92 93 91 90 88 84 81 78 78 78 75 71 66 58 51 61 80 82 81 79 76 76
131 137 142 128 126 125 122 118 113 111 110 108 107 103 99 95 90 87 89 90 92 92 92 92 91 88 84 79 78 78 76 72 70 65 57 52 56 80 81 82 80 76 73
126 131 144 132 130 127 123 120 116 113 112 111 110 106 101 97 93 91 92 90 93 95 93 91 91 87 83 80 78 79 76 72 68 62 55 50 57 79 83 84 82 79 75
127 129 139 132 129 126 122 118 116 113 112 114 113 110 104 98 94 91 92 91 91 95 93 91 88 88 83 80 78 77 73 70 70 61 55 51 69 82 81 82 84 82 81
125 127 128 123 121 119 117 116 113 110 109 111 111 111 104 101 98 91 89 90 91 96 95 92 88 82 82 81 78 76 72 69 71 65 56 51 72 83 83 81 80 82 81
121 129 130 126 119 118 116 114 109 108 107 106 106 104 101 98 93 88 85 89 90 95 98 94 88 81 76 77 77 76 71 64 61 61 58 54 70 81 82 83 84 84 82
120 133 140 126 117 120 122 117 114 111 112 108 102 99 97 94 89 84 83 88 89 93 94 93 89 81 74 70 75 74 68 63 55 55 52 59 66 78 81 80 84 86 85
129 140 146 137 130 130 127 123 121 116 117 111 100 95 90 79 83 82 84 88 88 89 90 91 89 80 69 64 67 71 67 63 55 50 45 59 69 74 79 81 83 88 87
167 165 155 150 146 141 134 124 123 118 119 108 99 94 82 80 87 89 87 84 82 82 85 88 90 76 65 58 57 64 66 60 56 39 33 52 74 78 76 80 86 89 90
175 163 161 157 151 146 141 133 122 120 121 117 114 109 99 90 86 77 78 71 71 70 61 71 70 65 64 66 61 68 70 59 48 28 25 40 66 79 77 76 84 90 90
162 175 171 159 156 152 143 139 138 131 132 134 133 124 119 111 107 109 99 91 81 75 70 59 62 71 75 69 72 75 78 71 53 31 29 38 49 74 78 77 78 85 85
178 185 174 166 166 160 148 149 145 144 140 137 132 130 131 134 137 133 129 116 110 103 106 94 80 81 79 69 69 75 80 74 68 51 22 34 38 50 67 69 74 73 72
193 190 178 175 174 163 158 157 157 152 146 138 142 140 135 137 140 144 139 133 130 129 132 127 114 102 81 78 65 60 66 78 71 62 39 22 25 30 44 54 65 64 56
198 185 179 178 170 166 164 163 157 155 151 150 154 148 141 136 139 146 142 144 157 151 129 106 97 97 91 76 62 48 60 61 79 78 57 33 6 14 23 34 40 49 40
183 175 175 166 165 169 168 163 157 154 154 159 157 153 152 150 147 142 138 151 162 146 136 126 117 110 103 96 69 27 38 50 74 77 77 52 29 9 5 22 15 23 23
155 156 159 158 162 167 162 158 151 147 155 159 156 157 164 160 153 145 139 143 140 132 132 137 112 125 131 127 112 52 58 37 38 45 72 61 52 39 18 8 6 4 1
130 120 121 134 158 154 135 125 134 132 148 146 154 163 163 160 152 139 131 127 129 121 112 127 126 116 137 149 105 17 320 253 214 169 251 352 82 59 45 21 356 335 343
106 114 122 115 99 122 143 162 171 180 168 154 158 155 159 158 155 148 144 141 138 140 145 133 133 130 125 123 92 4 341 326 200 201 236 309 279 240 76 358 330 325 325
132 135 130 136 135 133 153 180 176 164 156 154 139 135 142 151 155 152 150 153 150 138 123 121 121 132 146 132 130 124 331 326 316 281 241 237 259 289 289 279 266 282 305
137 156 159 151 138 126 100 82 71 72 65 67 100 176 183 158 156 162 161 156 155 152 154 157 153 150 171 204 153 154 169 227 286 287 255 243 250 264 266 262 257 258 278
182 163 147 135 119 110 106 113 116 122 141 204 204 202 196 166 146 139 148 156 159 161 161 176 168 169 162 185 227 224 194 172 181 277 292 282 266 251 253 274 275 269 263
139 128 130 118 106 104 105 120 129 106 104 99 75 81 136 82 94 112 136 148 163 163 167 175 171 169 177 187 192 193 222 216 181 190 251 267 287 259 249 252 249 261 262
83 86 91 105 95 99 110 113 133 125 110 115 115 126 341 330 267 134 138 158 160 156 175 188 183 184 193 193 197 190 194 197 196 195 231 249 265 268 259 251 240 239 253